Regional Weather Roundup
Issued by NWS

Home | Current Version | Previous Version | Text Only | Print | Product List | Glossary On
Versions: 1 2 3 4 5 6 7 8 9 10 11 12 13 14 15 16 17 18 19 20 21 22 23 24 25 26 27 28 29 30 31 32 33 34 35 36 37 38 39 40 41 42 43 44 45 46 47 48 49 50
000
ASUS43 KMPX 261110
RWRMN
WEATHER ROUNDUP FOR MINNESOTA
NATIONAL WEATHER SERVICE TWIN CITIES/CHANHASSEN MN
600 AM CDT TUE MAY 26 2015


NOTE: "FAIR" INDICATES FEW OR NO CLOUDS BELOW 12,000 FEET WITH NO
SIGNIFICANT WEATHER AND/OR OBSTRUCTIONS TO VISIBILITY. N/A MEANS
CURRENT SKY AND/OR WEATHER CONDITIONS ARE NOT AVAILABLE.

MNZ060>063-068>070-261200-
   Twin Cities Metro

CITY           SKY/WX    TMP DP  RH WIND       PRES   REMARKS
TWIN CITIES    CLOUDY    58  56  93 CALM      29.79R
ST PAUL        MOCLDY    58  56  93 NW3       29.79R
CRYSTAL        FOG       56  55  97 NW7       29.78S VSB<1/4
BLAINE         FOG       57  57 100 NW8       29.79S VSB 1/2
LAKEVILLE      CLOUDY    55  54  94 CALM      29.79R
EDEN PRAIRIE   CLOUDY    56  55  97 N5        29.78R FOG
SOUTH ST PAUL  CLOUDY    57  56  94 CALM      29.78S
LAKE ELMO      FOG       54  52  94 CALM      29.80R VSB 1
$$
MNZ001>005-007-008-013>017-022>024-027-028-261200-
   Northwest Minnesota

CITY           SKY/WX    TMP DP  RH WIND       PRES   REMARKS
BEMIDJI        FOG       43  43 100 CALM      29.88R VSB<1/4
HALLOCK        CLEAR     52  48  87 S9        29.79R
ROSEAU         PTCLDY    52  46  82 S7        29.82R
WARROAD        PTCLDY    52  48  87 S7        29.82R
THIEF RVR FALL CLEAR     52  46  82 S7        29.85S
CROOKSTON      CLEAR     54  48  82 S10       29.85R
FOSSTON        CLEAR     45  45 100 S7        29.88R FOG
DETROIT LAKES  PTCLDY    46  46 100 CALM      29.89R
MOORHEAD       CLEAR     48  46  93 SE3       29.88R FOG
PARK RAPIDS    MOCLDY    48  47  96 N5        29.86S
MAHNOMEN       FAIR      47  47  99 SE5       29.87S
$$
MNZ006-009>011-018-025>026-261200-
   North Central Minnesota

CITY           SKY/WX    TMP DP  RH WIND       PRES   REMARKS
BAUDETTE       CLEAR     48  46  93 S5        29.84R
FLAG ISLAND    CLEAR     54  52  94 S13       29.80R
INTL FALLS     CLEAR     42  40  92 CALM      29.86R
WASKISH        CLEAR     45  45 100 CALM      29.87R FOG
BIG FORK       FOG       45  45 100 CALM      29.88R VSB<1/4
LONGVILLE        N/A     48  48 100 N3        29.86R FOG
GRAND RAPIDS   CLOUDY    48  46  93 CALM      29.87R VSB 1/2
CRANE LAKE     CLOUDY    48  48 100 CALM      29.88R FOG
COOK           CLOUDY    52  52 100 CALM      29.87R
WALKER         FAIR      47  47 100 W3        29.87S FOG
$$
MNZ012-019>021-037-261200-
   Northeast Minnesota

CITY           SKY/WX    TMP DP  RH WIND       PRES   REMARKS
DULUTH         CLOUDY    53  51  93 NE7       29.84R
ELY            MOCLDY    50  48  93 CALM      29.87R FOG
HIBBING        MOCLDY    49  47  93 CALM      29.86R FOG
EVELETH        MOCLDY    50  50 100 CALM      29.87R FOG
DULUTH HARBOR  FOG       46  46 100 CALM      29.85R VSB 3/4
TWO HARBORS    CLOUDY    55  52  88 CALM      29.83R
GRAND MARAIS     N/A     42  41  96 W3        29.82R
G MARAIS ARPRT MOCLDY    52  48  87 N6        29.84S
$$
MNZ029>031-032-039>041-046>048-054>057-064-261200-
   West Central Minnesota

CITY           SKY/WX    TMP DP  RH WIND       PRES   REMARKS
FERGUS FALLS   MOCLDY    52  52 100 N3        29.88R
WHEATON        CLOUDY    48  46  93 NW6       29.89S
MORRIS         CLOUDY    54  50  87 N9        29.85S
ALEXANDRIA     CLOUDY    52  50  93 NE7       29.87R
ELBOW LAKE     FAIR      52  50  93 N8        29.86S
WADENA         CLOUDY    48  46  93 CALM      29.87R
GLENWOOD       CLOUDY    54  52  94 N12       29.85R
APPLETON       CLOUDY    55  52  88 N9        29.84F
BENSON         CLOUDY    55  50  82 NE8       29.84F
ORTONVILLE     CLOUDY    52  48  87 N12       29.85F
MADISON        CLOUDY    54  50  87 N7        29.85S
WILLMAR        CLOUDY    57  55  94 N9        29.84S
$$
MNZ033>034-036-042>043-049>051-058-059-261200-
   Central Minnesota

CITY           SKY/WX    TMP DP  RH WIND       PRES   REMARKS
ST CLOUD       CLOUDY    54  53  97 N7        29.82R
SAUK CENTRE    CLOUDY    54  51  89 N7        29.84S
PAYNESVILLE    CLOUDY    53  51  95 NW6       29.83F
AITKIN         CLOUDY    54  48  82 N3        29.84R
PINE RIVER     CLOUDY    48  48 100 CALM      29.90S FOG
BRAINERD       CLOUDY    53  52  96 N6        29.86R
STAPLES        CLOUDY    52  50  93 N3        29.87R
LONG PRAIRIE   CLOUDY    54  50  87 NW7       29.85S
LITTLE FALLS   CLOUDY    54  50  87 CALM      29.83F
LITCHFIELD     CLOUDY    57  57 100 VRB8      29.81S
BUFFALO        CLOUDY    56  54  92 N7        29.80S
MAPLE LAKE     CLOUDY    57  56  99 NW6       29.82R FOG
$$
MNZ037-044-045-052-053-261200-
   East Central Minnesota

CITY           SKY/WX    TMP DP  RH WIND       PRES   REMARKS
PRINCETON      CLOUDY    54  52  94 N7        29.82R
MORA           CLOUDY    50  48  93 N3        29.84R
CAMBRIDGE      HAZE      54  46  76 N5        29.80R VSB 1
RUSH CITY      CLOUDY    50  49  97 N6        29.82R FOG
MOOSE LAKE     CLOUDY    52  52 100 NE5       29.82R
HINCKLEY       CLOUDY    52  50  93 CALM      29.83R
CLOQUET        CLOUDY    54  52  94 NE3       29.84R
MCGREGOR       CLOUDY    54  52  94 CALM      29.85S
$$
MNZ071>073-080-081-089-090-097-098-261200-
   Southwest Minnesota

CITY           SKY/WX    TMP DP  RH WIND       PRES   REMARKS
MONTEVIDEO     CLOUDY    55  54  94 N7        29.85S
GRANITE FALLS  CLOUDY    56  53  89 N12       29.83F
CANBY          CLOUDY    53  51  92 NW6       29.86F
MARSHALL       CLOUDY    54  48  82 N13       29.82R
REDWOOD FALLS  CLOUDY    56  54  93 N8        29.80S
OLIVIA         CLOUDY    54  52  94 N8        29.80S
PIPESTONE      CLOUDY    54  52  94 N7        29.81S
WINDOM         CLOUDY    55  54  94 N10       29.81R
WORTHINGTON    CLOUDY    55  52  88 NE7       29.82R THUNDER
JACKSON        CLOUDY    55  54  94 N7        29.80F
TRACY          CLOUDY    56  54  95 N10       29.82S
SLAYTON        CLOUDY    54  54  99 N9        29.83R
$$
MNZ065>067-074>077-082>085-091>093-261200-
   South Central Minnesota

CITY           SKY/WX    TMP DP  RH WIND       PRES   REMARKS
MANKATO        CLOUDY    57  54  88 CALM      29.80R
NEW ULM        CLOUDY    55  54  94 CALM      29.81R
ST JAMES       CLOUDY    57  55  94 NW6       29.81R
FAIRMONT       CLOUDY    57  52  82 CALM      29.82R
GLENCOE        CLOUDY    56  56 100 NW7       29.79R FOG
FARIBAULT      CLOUDY    57  57 100 CALM      29.80R
OWATONNA       CLOUDY    57  55  94 CALM      29.81R FOG
WASECA         CLOUDY    55  54  94 CALM      29.81R FOG
ALBERT LEA     CLOUDY    61  57  88 S5        29.81R
$$
MNZ078>079-086>088-094>096-261200-
   Southeast Minnesota

CITY           SKY/WX    TMP DP  RH WIND       PRES   REMARKS
ROCHESTER      CLOUDY    60  55  83 S9        29.83R
RED WING       MOCLDY    57  55  94 CALM      29.79R FOG
STANTON        FOG       56  54  94 CALM      29.79R VSB 1
DODGE CENTER   CLOUDY    59  55  88 S8        29.82R
WINONA         MOCLDY    59  55  88 SE3       29.82R
AUSTIN         CLOUDY    61  55  82 S3        29.82R
PRESTON        MOCLDY    56  54  93 CALM      29.83R
$$
ABBREVIATIONS USED IN REMARKS
   TC - TEMPERATURES IN CELSIUS
  WCI - WIND CHILL INDEX
   HX - HEAT INDEX
  VSB - VISIBILITY
$$


USA.gov is the U.S. government's official web portal to all federal, state and local government web resources and services.